Regional Weather Roundup
Issued by NWS

Home | Current Version | Previous Version | Graphics & Text | Print | Product List | Glossary On
Versions: 1 2 3 4 5 6 7 8 9 10 11 12 13 14 15 16 17 18 19 20 21 22 23 24 25 26 27 28 29 30 31 32 33 34 35 36 37 38 39 40 41 42 43 44 45 46 47 48 49 50
498
ASUS43 KIND 161159
RWRIN

WEATHER ROUNDUP FOR INDIANA
NATIONAL WEATHER SERVICE INDIANAPOLIS IN
700 AM EST TUE JAN 16 2018

NOTE: "FAIR" INDICATES FEW OR NO CLOUDS BELOW 12,000 FEET WITH NO
SIGNIFICANT WEATHER AND/OR OBSTRUCTIONS TO VISIBILITY.

* - STATION DOES NOT REPORT WEATHER SUCH AS PRECIPITATION OR FOG.

+ - STATION NOT QUALITY CONTROLLED BY THE NATIONAL WEATHER SERVICE.
    USE DATA WITH CAUTION...ESPECIALLY DEWPOINT AND RELATIVE
    HUMIDITY OBSERVATIONS.

INZ001>003-010>013-019-020-161300-
NORTHWEST INDIANA

CITY           SKY/WX    TMP DP  RH WIND       PRES   REMARKS
GARY /AIRPORT/ LGT SNOW   7   1  78 SW9       30.41R WCI  -7
KNOX *+        FAIR       0  -6  78 SW9       30.42R WCI -16
MONTICELLO +   LGT SNOW  -1  -6  78 W9        30.45S WCI -16
6HR MIN TEMP:  -1; 6HR MAX TEMP:   4;


$$

LMZ046-743>745-161300-
SOUTHERN LAKE MICHIGAN

STATION/POSITION TIME  TEMP    WIND        PRES    WAVE
                       AIR SEA DIR/SP/G            HT
                 (UTC) (F)     (DEG/KT/KT) (MB)    (FT)
BURNS HARBOR     1140    3     210/ 12/ 14 1029.5R
MICHIGAN CITY    1130          180/ 12/ 14   N/A

$$

INZ004-005-014>016-021>024-161300-
NORTH CENTRAL INDIANA

CITY           SKY/WX    TMP DP  RH WIND       PRES   REMARKS
ELKHART        CLOUDY     0  -6  78 S5        30.40  WCI -10
GOSHEN         CLOUDY     1  -4  79 SW12      30.40R WCI -16
6HR MIN TEMP:  -2; 6HR MAX TEMP:   4;

PERU/GRISSOM   CLOUDY    -2  -6  81 W14       30.43R WCI -21
6HR MIN TEMP:  -2; 6HR MAX TEMP:   5; 6HR PCP: TRACE;

SOUTH BEND     LGT SNOW   1  -3  83 S9        30.39R FOG     WCI -14
6HR MIN TEMP:   0; 6HR MAX TEMP:   3; 6HR PCP: TRACE;


$$

INZ006>009-017-018-025>027-161300-
NORTHEAST INDIANA

CITY           SKY/WX    TMP DP  RH WIND       PRES   REMARKS
FORT WAYNE     FAIR      -2  -6  83 SW8       30.43R WCI -17
6HR MIN TEMP:  -2; 6HR MAX TEMP:   7;

KENDALLVILLE + FAIR      -2  -6  84 SW7       30.39R WCI -16

$$

INZ028-029-035-036-043>045-051>053-161300-
WEST CENTRAL INDIANA

CITY           SKY/WX    TMP DP  RH WIND       PRES   REMARKS
GREENCASTLE +  FAIR      -4  -8  84 CALM      30.50S
LAFAYETTE      CLOUDY    -2  -6  83 W10       30.48S WCI -19
6HR MIN TEMP:  -2; 6HR MAX TEMP:   2;

TERRE HAUTE    FAIR      -3 -10  72 W9        30.55R WCI -19
6HR MIN TEMP:  -3; 6HR MAX TEMP:   3;


$$

INZ030>032-037>040-046>048-054>057-064-065-161300-
CENTRAL INDIANA

CITY           SKY/WX    TMP DP  RH WIND       PRES   REMARKS
GREENWOOD *+   FAIR      -1  -6  77 W5        30.49S WCI -11
6HR MIN TEMP:  -1; 6HR MAX TEMP:   7;

INDIANAPOLIS   FAIR      -3  -8  79 SW10      30.49R WCI -20
6HR MIN TEMP:  -5; 6HR MAX TEMP:   2;

-EAGLE CREEK   FAIR      -3  -8  79 SW3       30.48S
6HR MIN TEMP:  -3; 6HR MAX TEMP:   4;

MT COMFORT *+  FAIR      -6  -8  92 W8        30.47S WCI -21
SHELBYVILLE    FAIR      -1  -8  72 SW9       30.49R WCI -16
6HR MIN TEMP:  -1; 6HR MAX TEMP:   8;


$$

INZ033-034-041-042-049-050-058-059-161300-
EAST CENTRAL INDIANA

CITY           SKY/WX    TMP DP  RH WIND       PRES   REMARKS
MUNCIE         FAIR       1  -5  75 W9        30.44S WCI -14
6HR MIN TEMP:   1; 6HR MAX TEMP:   9;

RICHMOND +     FAIR       0  -4  85 W8        30.44R WCI -15

$$

INZ060-061-067>069-081>083-085>088-161300-
SOUTHWEST INDIANA

CITY           SKY/WX    TMP DP  RH WIND       PRES   REMARKS
EVANSVILLE     FAIR       4  -5  66 NW7       30.63R WCI  -8
6HR MIN TEMP:   4; 6HR MAX TEMP:  11;

HUNTINGBURG +  FAIR       4  -4  69 NW7       30.60R WCI  -8
6HR MIN TEMP:   4; 6HR MAX TEMP:  11; 6HR PCP: TRACE;


$$

INZ062-063-066-070>080-084-089>092-161300-
SOUTH CENTRAL AND SOUTHEAST INDIANA

CITY           SKY/WX    TMP DP  RH WIND       PRES   REMARKS
BLOOMINGTON    FAIR      -3  -8  79 CALM      30.51R
6HR MIN TEMP:  -6; 6HR MAX TEMP:   6;

MADISON *+     MOCLDY     7   0  72 W7        30.53R WCI  -5
SEYMOUR +      FAIR       5  -4  66 NW7       30.54R WCI  -7

$$





USA.gov is the U.S. government's official web portal to all federal, state and local government web resources and services.